Location: Guferjoch
(46.7462°N, 8.4506°E)
Time: 12:37:55
(UTC+00:00)

IRS-P3 - Pass Details

Date: 14 July 2020
Orbit: 814 x 819 km, 98.8° (Epoch: 06 August)

Event Time Altitude Azimuth Distance (km) Brightness Sun altitude
Rises 01:49:46 0° 17° (NNE) 3,353 8.9 -14.9°
Reaches altitude 10° 01:52:08 10° 20° (NNE) 2,417 7.9 -14.7°
Maximum altitude 01:57:27 65° 102° (ESE) 895 4.4 -14.2°
Enters shadow 02:01:59 14° 183° (S) 2,110 5.8 -13.7°
